Weather History for Long Beach, CA

Change the Weather History Date:

Wednesday, November 20, 2013

  Actual Average Record
Temperature  
Mean Temperature 60 °F 60 °F  
Max Temperature 64 °F 71 °F 91 °F (2002)
Min Temperature 55 °F 50 °F 36 °F (1994)
Degree Days  
Heating Degree Days 5 5  
Month to date heating degree days 28 65  
Since 1 July heating degree days 52 86  
Cooling Degree Days 0 0  
Month to date cooling degree days 39 19  
Year to date cooling degree days 1227 1123  
Growing Degree Days 9 (Base 50)    
Moisture  
Dew Point 53 °F    
Average Humidity 76    
Maximum Humidity 87    
Minimum Humidity 65    
Precipitation  
Precipitation 0.18 in 0.03 in 1.41 in (1967)
Month to date precipitation 0.18 0.57  
Year to date precipitation 3.24 9.88  
Since 1 July precipitation 0.37 1.44  
Sea Level Pressure  
Sea Level Pressure 29.93 in    
Wind  
Wind Speed 3 mph (SE)    
Max Wind Speed 8 mph    
Max Gust Speed 10 mph    
Visibility 7 miles    
Events Rain    
T = Trace of Precipitation, MM = Missing Value Source: NWS Daily Summary

Daily Weather History Graph

Daily Weather History Graph

Search for Another Location

Airport:

Trip Planner

Search our weather history database for the weather conditions in past years. The results will help you decide how hot, cold, wet, or windy it might be!

Date:

Astronomy

Nov. 20, 2013 Rise Set
Actual Time 6:29 AM PST 4:46 PM PST
Civil Twilight 6:02 AM PST 5:13 PM PST
Nautical Twilight 5:32 AM PST 5:43 PM PST
Astronomical Twilight 5:02 AM PST 6:13 PM PST
Moon 7:33 PM PST (11/20) 8:58 AM PST (11/20)
Length of Visible Light 11h 10m
Length of Day
10h 16m
Waning Gibbous, 91% of the Moon is Illuminated
Nov 20
Waning Gibbous
Nov 25
Last Quarter
Dec 2
New
Dec 9
First Quarter
Dec 17
Full

Hourly Weather History & Observations

Time (PST) Temp. Dew Point Humidity Pressure Visibility Wind Dir Wind Speed Gust Speed Precip Events Conditions
12:37 AM 57.2 °F 50.0 °F 77% 29.98 in 10.0 mi Calm Calm - N/A   Mostly Cloudy
12:53 AM 55.9 °F 50.0 °F 80% 29.97 in 10.0 mi Calm Calm - N/A   Mostly Cloudy
1:09 AM 55.4 °F 50.0 °F 82% 29.97 in 10.0 mi Calm Calm - N/A   Scattered Clouds
1:53 AM 55.0 °F 50.0 °F 83% 29.96 in 10.0 mi Calm Calm - N/A   Clear
2:13 AM 55.4 °F 50.0 °F 82% 29.96 in 10.0 mi Calm Calm - N/A   Mostly Cloudy
2:53 AM 55.0 °F 50.0 °F 83% 29.96 in 10.0 mi Calm Calm - N/A   Overcast
3:53 AM 57.0 °F 50.0 °F 77% 29.94 in 10.0 mi Calm Calm - N/A   Overcast
4:53 AM 55.9 °F 51.1 °F 84% 29.95 in 10.0 mi Calm Calm - N/A   Overcast
5:14 AM 55.4 °F 51.8 °F 88% 29.94 in 8.0 mi Calm Calm - N/A   Overcast
5:31 AM 55.4 °F 51.8 °F 88% 29.95 in 10.0 mi Calm Calm - N/A   Overcast
5:53 AM 55.9 °F 51.1 °F 84% 29.95 in 10.0 mi Calm Calm - N/A   Overcast
6:53 AM 57.9 °F 51.1 °F 78% 29.96 in 10.0 mi Calm Calm - N/A   Overcast
7:53 AM 59.0 °F 51.1 °F 75% 29.97 in 9.0 mi NE 3.5 mph - N/A   Clear
8:53 AM 61.0 °F 51.1 °F 70% 29.97 in 10.0 mi Calm Calm - N/A   Mostly Cloudy
9:53 AM 63.0 °F 51.1 °F 65% 29.97 in 10.0 mi Variable 3.5 mph - N/A   Mostly Cloudy
10:53 AM 62.1 °F 50.0 °F 65% 29.96 in 10.0 mi SSW 3.5 mph - N/A   Overcast
11:02 AM 62.6 °F 50.0 °F 63% 29.95 in 10.0 mi Variable 5.8 mph - N/A   Mostly Cloudy
11:53 AM 63.0 °F 50.0 °F 63% 29.93 in 10.0 mi SSW 6.9 mph - N/A   Overcast
12:53 PM 63.0 °F 51.1 °F 65% 29.91 in 10.0 mi SSW 5.8 mph - N/A   Overcast
1:53 PM 63.0 °F 51.1 °F 65% 29.90 in 10.0 mi SW 5.8 mph - N/A   Overcast
2:53 PM 63.0 °F 52.0 °F 67% 29.89 in 10.0 mi South 3.5 mph - N/A   Overcast
3:53 PM 63.0 °F 52.0 °F 67% 29.90 in 10.0 mi South 4.6 mph - N/A   Overcast
4:53 PM 63.0 °F 53.1 °F 70% 29.91 in 10.0 mi South 3.5 mph - N/A   Overcast
5:53 PM 63.0 °F 54.0 °F 72% 29.91 in 10.0 mi South 4.6 mph - N/A   Overcast
6:53 PM 63.0 °F 54.0 °F 72% 29.90 in 10.0 mi South 3.5 mph - N/A   Overcast
7:53 PM 62.1 °F 55.0 °F 78% 29.91 in 10.0 mi SSE 3.5 mph - 0.00 in   Overcast
8:07 PM 62.6 °F 55.4 °F 77% 29.91 in 10.0 mi SE 4.6 mph - N/A   Overcast
8:37 PM 60.8 °F 55.4 °F 82% 29.91 in 3.0 mi Calm Calm - 0.01 in Rain Light Rain
8:42 PM 60.8 °F 55.4 °F 82% 29.91 in 2.5 mi Calm Calm - 0.01 in Rain Light Rain
8:53 PM 60.1 °F 55.9 °F 86% 29.91 in 3.0 mi Calm Calm - 0.03 in Rain Light Rain
9:10 PM 60.8 °F 55.4 °F 82% 29.91 in 2.5 mi Calm Calm - 0.03 in Rain Light Rain
9:17 PM 60.8 °F 55.4 °F 82% 29.91 in 2.5 mi Calm Calm - 0.04 in Rain Light Rain
9:38 PM 60.8 °F 55.4 °F 82% 29.91 in 2.5 mi SE 4.6 mph - 0.06 in Rain Light Rain
9:46 PM 60.8 °F 55.4 °F 82% 29.91 in 2.5 mi ESE 5.8 mph - 0.06 in Rain Light Rain
9:53 PM 60.1 °F 55.9 °F 86% 29.91 in 2.5 mi SE 5.8 mph - 0.07 in Rain Light Rain
10:00 PM 60.8 °F 55.4 °F 82% 29.90 in 3.0 mi SE 5.8 mph - 0.02 in Rain Rain
10:05 PM 60.8 °F 55.4 °F 82% 29.90 in 2.5 mi SE 5.8 mph - 0.03 in Rain Light Rain
10:12 PM 60.8 °F 55.4 °F 82% 29.90 in 3.0 mi ESE 5.8 mph - 0.03 in Rain Light Rain
10:25 PM 59.0 °F 55.4 °F 88% 29.90 in 4.0 mi ESE 5.8 mph - 0.04 in Rain Light Rain
10:51 PM 59.0 °F 55.4 °F 88% 29.89 in 2.5 mi East 4.6 mph - 0.05 in Rain Light Rain
10:53 PM 59.0 °F 55.9 °F 90% 29.89 in 2.5 mi East 4.6 mph - 0.05 in Rain Light Rain
11:12 PM 59.0 °F 55.4 °F 88% 29.89 in 3.0 mi East 4.6 mph - 0.01 in Rain Light Rain
11:45 PM 59.0 °F 55.4 °F 88% 29.88 in 2.5 mi East 5.8 mph - 0.02 in Rain Light Rain
11:53 PM 59.0 °F 55.9 °F 90% 29.88 in 2.5 mi East 5.8 mph - 0.03 in Rain Light Rain